Location: Großbottwar
(49.0015°N, 9.2935°E)
Time: 09:56:16
(UTC+00:00)

Daily predictions for brighter satellites

Satellite Brightness Start Highest point End
(mag) Time Altitude Azimuth Time Altitude Azimuth Time Altitude Azimuth
NOSS 0 Rocket 4.3 19:30:14 10° SW 19:36:23 74° WNW 19:42:36 10° NNE
Cosmos 2056 Rocket 4.3 19:32:21 10° NNW 19:37:29 41° ENE 19:42:32 10° SE
Lacrosse 5 2.0 19:33:04 10° NW 19:38:12 84° NE 19:43:20 10° ESE
USA 276 1.6 19:39:21 10° W 19:41:30 63° N 19:43:44 10° E
Ariane Rocket 4.1 19:37:36 10° ESE 19:41:59 31° ENE 19:46:24 10° N
IRS-1C Rocket 4.4 19:38:01 10° SE 19:43:10 56° ENE 19:48:19 10° N
Cosmos 44 3.8 19:38:38 10° NNW 19:43:27 49° NE 19:47:57 10° ESE
CZ-4 R/B 3.8 19:40:41 10° SW 19:43:32 20° W 19:46:25 10° NW
Lacrosse 5 rocket 1.7 19:39:51 10° SSW 19:43:57 45° SE 19:48:01 10° ENE
Cosmos 2369 Rocket 3.2 19:39:47 10° NNW 19:44:54 35° NE 19:49:59 10° ESE
Cosmos 1812 Rocket 3.6 19:41:01 10° S 19:45:23 62° E 19:49:44 10° NNE
ATLAS 5 CENTAUR R/B 3.9 19:42:41 10° WNW 19:46:55 26° WSW 19:51:51 10° S
Cosmos 2344 4.2 19:42:21 10° NW 19:50:40 85° SW 20:02:12 10° SE
Cosmos 2221 3.4 19:47:02 10° SSE 19:50:49 31° E 19:54:37 10° NNE
Cosmos 2084 4.0 19:50:19 10° NNW 19:53:55 41° NE 19:57:30 10° ESE
Resurs 01 Rocket 3.1 19:50:42 10° SSW 19:54:48 36° W 19:58:55 10° NNW
Cosmos 2237 Rocket 2.7 19:53:09 10° SW 19:58:48 68° WNW 20:04:31 10° NNE
BREEZE-M DEB (TANK) 2.5 19:56:45 10° SW 19:59:52 36° SSE 20:01:52 10° E
USA 308 3.6 19:58:02 10° W 20:00:12 23° SW 20:02:46 10° SSE
Cosmos 1378 2.9 19:58:04 10° S 20:01:17 57° E 20:04:32 10° NNE
ATLAS 3B R/B 3.1 19:54:14 10° NW 20:02:08 88° SW 20:09:48 11° SE
BREEZE-M DEB (TANK) 4.0 19:59:43 10° SW 20:03:11 43° SSE 20:11:37 10° E
Cosmos 921 Rocket 4.1 20:01:32 10° SSE 20:05:18 27° E 20:09:06 10° NE
Aureole 3 Rocket 3.1 20:02:51 10° N 20:06:21 53° E 20:10:56 10° SSE
GEOS 3 Rocket 4.1 20:02:47 10° NE 20:07:34 37° ESE 20:12:16 10° S
Cosmos 923 Rocket 4.0 20:02:23 10° SSW 20:07:41 77° ESE 20:13:02 10° NNE
SPOT 5 2.8 20:03:08 10° SSE 20:07:50 87° WSW 20:12:20 10° NNW
USA 306 4.0 20:05:09 10° WNW 20:08:39 37° N 20:12:19 10° ENE
Landsat 4 3.8 20:08:45 12° SSE 20:11:51 53° ENE 20:15:16 10° N
Cosmos 1464 Rocket 4.5 20:06:08 10° NNW 20:12:23 64° W 20:18:30 10° S
ARGOS Delta rocket 4.1 20:10:01 10° SSE 20:15:07 66° ENE 20:19:58 10° N
Okean O Rocket 3.6 20:13:03 10° SSW 20:16:46 26° W 20:20:31 10° NW
USA 234 4.4 20:11:43 10° ENE 20:17:50 44° N 20:23:58 10° WNW
Terra 1.9 20:13:56 11° SSE 20:18:21 66° ENE 20:23:03 10° N
Cosmos 1656 Rocket 3.7 20:17:17 10° NNW 20:22:45 74° ENE 20:27:23 15° SE
Cosmos 1371 Rocket 4.1 20:17:54 10° NNW 20:23:17 89° ENE 20:28:03 13° SSE
ERS-1 Rocket 3.0 20:18:56 10° SSE 20:23:51 86° ENE 20:28:56 10° NNW
ATLAS 2AS CENTAUR R/B 3.4 20:19:06 10° WSW 20:26:24 62° NW 20:33:26 10° NE
Cosmos 1842 Rocket 4.4 20:24:38 15° SSE 20:27:44 33° E 20:31:42 10° NNE
Meteor 1-14 Rocket 4.5 20:22:38 10° N 20:28:25 61° ENE 20:33:21 15° SSE
SPOT 3 Rocket 3.6 20:24:07 14° SSE 20:28:35 66° ENE 20:33:41 10° N
USA 59 Rocket 2.3 20:28:43 10° N 20:30:44 14° NNE 20:32:59 10° ENE
USA 281 3.3 20:27:32 14° SE 20:33:16 71° ENE 20:39:51 10° NNW
Meteor 1-26 Rocket 4.5 20:27:30 10° SSW 20:33:34 84° WNW 20:39:38 10° N
Cosmos 1943 Rocket 3.8 20:29:49 10° NW 20:34:35 28° WSW 20:39:18 10° SSW
Cosmos 1420 Rocket 4.4 20:30:31 10° NNW 20:35:46 63° WSW 20:40:30 13° S
Cosmos 1743 2.5 20:35:11 10° N 20:38:49 86° E 20:41:25 18° S
ISS -3.2 20:37:18 10° WNW 20:40:36 58° N 20:43:45 11° E
ARIANE 5 R/B 4.5 20:38:37 11° ESE 20:41:23 18° ENE 20:44:19 10° NNE
USA 245 3.0 20:42:39 19° SSW 20:43:57 39° WSW 20:46:06 10° NNW
Cosmos 2279 Rocket 4.1 20:40:07 10° N 20:46:16 62° ENE 20:50:54 18° SSE
Cosmos 2297 3.8 20:41:16 10° NNW 20:47:01 75° WSW 20:51:24 18° SSE
Cosmos 1634 Rocket 4.0 20:40:55 10° N 20:47:16 89° E 20:52:38 15° S
Cosmos 2112 Rocket 4.2 20:44:48 10° SSW 20:50:07 77° WNW 20:55:27 10° NNE
USA 290 4.2 20:48:30 10° NW 20:51:08 23° WSW 20:53:34 11° SSW
Cosmos 1766 Rocket 3.9 20:47:30 10° NNW 20:51:55 66° W 20:55:32 15° S
USA 229 DEB 4.0 20:48:14 10° NW 20:55:38 89° NE 21:01:46 19° SE
USA 229 4.0 20:48:19 10° NW 20:55:44 88° NE 21:01:53 19° SE
Cosmos 1726 1.9 20:54:16 10° N 20:57:23 55° ENE 20:58:35 31° SE
Spot 2 Rocket 3.8 20:54:06 15° S 20:58:14 64° WSW 21:03:16 10° NNW
Cosmos 1680 Rocket 4.2 20:55:15 10° SW 21:00:27 56° WNW 21:05:39 10° NNE
Meteor 2-6 Rocket 4.2 20:58:36 10° S 21:04:16 89° W 21:09:48 10° NNE
USA 32 4.4 21:01:28 10° SSW 21:06:39 65° W 21:11:52 10° N
Cosmos 1743 Rocket 4.4 21:04:44 10° N 21:08:50 37° ENE 21:10:51 24° ESE
Sich 1 3.6 21:09:42 10° N 21:13:54 44° ENE 21:15:51 27° SE
MetOp-A 3.7 21:11:24 25° SSE 21:13:56 89° W 21:18:43 10° NNW
USA 276 2.2 21:13:33 10° W 21:15:14 37° WSW 21:15:14 37° WSW
SL-16 R/B 2.9 21:10:25 10° SW 21:15:59 55° NW 21:21:35 10° NNE
Cosmos 2263 4.3 21:10:49 10° NNW 21:16:31 77° WSW 21:20:00 25° SSE
MOS 1 Rocket 3.9 21:13:56 18° S 21:17:33 57° W 21:22:44 10° NNW
Cosmos 1603 4.2 21:15:41 24° SSE 21:18:25 39° ESE 21:23:41 10° NE
Cosmos 1536 2.6 21:16:42 10° N 21:20:35 83° E 21:22:15 33° SSE
Lacrosse 5 3.4 21:16:39 10° WNW 21:20:43 24° SW 21:23:08 17° SSW
Ariane Rocket 3.9 21:16:49 15° SSW 21:20:46 42° W 21:25:37 10° NNW
Cosmos 2180 Rocket 4.4 21:15:32 10° N 21:21:47 82° E 21:25:40 24° SSE
Lacrosse 5 rocket 2.5 21:18:13 10° W 21:22:21 46° NNW 21:26:25 10° NE
USA 267 4.2 21:17:37 10° ENE 21:22:37 23° SE 21:23:24 22° SE
Cosmos 1452 Rocket 3.5 21:18:38 10° NNW 21:23:55 88° ENE 21:26:45 28° SSE
Cosmos 1408 Rocket 3.5 21:19:30 10° N 21:23:59 88° ENE 21:26:12 30° S
Spot 1 4.1 21:20:33 10° NNE 21:24:36 73° WNW 21:27:37 18° SSW
Meteor 1-27 Rocket 3.9 21:22:18 26° SSE 21:25:13 52° E 21:30:35 10° NNE
Okean 1 3.2 21:25:59 36° SSE 21:27:21 62° E 21:31:12 10° NNE
Cosmos 1340 3.2 21:24:51 10° N 21:28:03 37° ENE 21:28:49 32° ESE
Cosmos 2221 4.3 21:24:20 10° SW 21:28:07 29° WNW 21:31:55 10° N
Cosmos 2369 Rocket 2.8 21:23:44 10° NW 21:29:04 47° WSW 21:32:23 22° S
Cosmos 1626 4.3 21:31:50 10° E 21:31:50 10° E 21:32:16 10° ENE
FALCON 9 R/B 4.5 21:29:52 10° WSW 21:36:50 36° S 21:57:57 10° ESE
USA 306 3.1 21:39:02 10° WNW 21:42:52 60° NNE 21:45:08 23° E
Cosmos 921 Rocket 4.5 21:39:11 10° SW 21:43:21 37° WNW 21:47:33 10° N
GEOS 3 Rocket 4.4 21:40:40 10° NE 21:45:44 53° NW 21:50:42 10° WSW
ATLAS 3B R/B 4.4 21:46:01 10° WNW 21:52:03 25° WSW 21:57:02 13° SSW
Landsat 5 4.5 21:48:43 10° N 21:52:14 38° WNW 21:54:55 15° SW
Meteor 2-17 Rocket 4.4 21:50:28 28° S 21:53:53 80° E 21:59:58 10° NNE
SL-8 R/B 3.7 21:50:43 10° SW 21:55:20 52° SSE 21:59:58 10° E
Cosmos 1500 Rocket 3.9 21:52:02 10° NNW 21:56:18 58° W 21:57:58 33° SSW
Terra 4.1 21:53:20 10° SW 21:56:25 17° W 21:59:30 10° NW
Cosmos 1943 3.4 21:53:57 12° SW 21:59:14 74° WNW 22:04:56 10° NNE
Cosmos 1733 3.1 21:55:57 10° NNW 21:59:27 66° W 22:00:08 51° SSW
USA 234 3.8 21:53:52 10° E 22:00:16 58° NNE 22:06:40 10° WNW
Spot 4 4.3 21:58:25 31° SE 22:00:19 49° ENE 22:04:54 10° N
ALOS 2 3.7 21:58:50 25° ESE 22:00:28 34° ENE 22:04:27 10° N
Meteor 2-4 Rocket 4.2 22:00:28 32° SSE 22:02:50 50° E 22:08:32 10° NNE
H-2A R/B 2.5 22:02:30 44° SE 22:03:39 67° ENE 22:07:51 10° N
Cosmos 1805 Rocket 3.9 22:00:55 10° NNW 22:05:13 57° W 22:06:48 35° SSW
IRIDIUM 104 4.3 22:00:54 10° N 22:06:10 77° E 22:08:14 37° SSE
Lacrosse 4 Rocket 3.0 22:04:45 10° NNW 22:08:15 27° NE 22:10:34 17° E
Cosmos 1151 Rocket 2.9 22:08:37 43° S 22:10:02 89° E 22:14:25 10° N
Cosmos 1092 Rocket 4.1 22:10:25 33° SSE 22:13:14 64° E 22:19:29 10° NNE
Cosmos 1666 Rocket 3.7 22:08:57 10° N 22:13:16 62° ENE 22:14:23 45° SE
Cosmos 1428 Rocket 4.4 22:11:50 32° S 22:14:54 82° E 22:21:02 10° N
Cosmos 1302 Rocket 3.9 22:10:05 10° NNW 22:15:18 82° WSW 22:17:13 40° SSE
IRIDIUM 114 4.3 22:10:03 10° N 22:15:19 90° SW 22:17:22 38° S
Cosmos 1656 4.3 22:10:48 10° NNW 22:16:04 47° NE 22:19:03 24° ESE
Cosmos 1633 Rocket 3.3 22:12:36 10° N 22:16:58 57° ENE 22:18:08 42° SE
ISS -3.0 22:14:01 10° WNW 22:16:33 40° WSW 22:16:33 40° WSW
ARIANE 5 R/B 2.8 22:16:04 41° SSW 22:17:22 60° WSW 22:21:40 10° NNW
Cosmos 1340 Rocket 3.1 22:17:22 39° SW 22:18:38 63° WNW 22:22:38 10° N
USA 59 Rocket 0.3 22:17:09 10° NW 22:20:56 65° NE 22:22:59 32° ESE
NOSS 2-1 (E) 3.8 22:18:01 10° NW 22:21:47 66° NE 22:23:49 33° ESE
MINOTAUR 4 R/B 4.3 22:19:13 10° N 22:22:06 46° WNW 22:22:21 44° W
Cosmos 1992 Rocket 4.2 22:18:28 10° NNW 22:23:41 64° ENE 22:25:48 35° SE
IRIDIUM 103 4.3 22:19:14 10° N 22:24:28 76° W 22:26:30 38° S
CZ-2C R/B 4.0 22:20:54 10° N 22:25:24 61° WNW 22:27:23 31° SW
H-2A R/B 3.7 22:22:00 10° NE 22:25:24 21° E 22:25:53 21° ESE
Cosmos 1697 Rocket 4.3 22:21:46 10° NNW 22:26:39 29° NE 22:31:17 11° ESE
Cosmos 614 Rocket 4.0 22:27:44 42° SSE 22:29:18 62° ESE 22:34:28 10° NNE
Cosmos 1766 3.7 22:26:48 10° N 22:30:24 44° ENE 22:30:52 42° E
Cosmos 2195 Rocket 4.4 22:27:33 32° SSW 22:30:34 84° W 22:36:43 10° N
Cosmos 1980 Rocket 4.5 22:27:39 10° N 22:31:45 20° NE 22:35:52 10° E
NOSS 2-1 (D) 3.5 22:29:37 10° NW 22:33:25 84° NE 22:34:55 43° SE
Cosmos 1470 4.2 22:31:05 10° NNE 22:34:12 24° ENE 22:34:55 23° E
Cosmos 1805 3.8 22:36:10 10° NNW 22:39:42 43° W 22:40:09 41° WSW
Spot 2 4.3 22:50:57 49° SSW 22:52:03 68° WSW 22:56:51 10° NNW
Cosmos 1975 3.6 22:52:56 10° NNW 22:56:37 38° W 22:57:09 36° WSW
NOSS 3-3 (A) 4.1 22:59:40 40° SSE 23:00:56 47° ESE 23:06:56 10° NE
Lacrosse 5 rocket 3.6 22:57:50 10° WNW 23:01:28 27° N 23:05:00 10° NE
Cosmos 1626 2.4 23:04:41 48° WNW 23:04:41 48° WNW 23:07:48 10° N
Cosmos 1269 Rocket 4.0 23:04:35 46° S 23:06:03 68° ESE 23:11:19 10° NNE
USA 267 3.2 22:59:50 10° ENE 23:06:23 72° SE 23:10:42 23° SW
Cosmos 1674 2.7 23:07:50 58° E 23:07:50 58° E 23:11:08 10° NNE
NOSS 2-1 (C) 3.8 23:04:49 10° NW 23:08:38 53° SW 23:09:07 50° SSW
Cosmos 2082 Rocket 4.3 23:08:47 11° ESE 23:10:25 12° E 23:12:42 10° ENE
PSLV R/B 3.6 23:08:27 10° NNE 23:13:04 73° ESE 23:13:59 54° SSE
USA 306 3.9 23:12:55 10° WNW 23:15:15 29° W 23:15:15 29° W
Cosmos 1833 Rocket 3.1 23:17:10 38° SSE 23:18:34 45° ESE 23:23:54 10° NE
Cosmos 44 Rocket 4.2 23:17:45 10° NNW 23:22:35 47° NE 23:26:07 17° ESE
Cosmos 2315 Rocket 4.5 23:18:13 10° N 23:24:22 54° ENE 23:27:37 28° SE
S3M 4.1 23:19:11 10° N 23:25:35 77° E 23:28:27 36° SSE
NOSS 3-3 (C) 3.8 23:26:06 42° S 23:27:56 66° SE 23:34:17 10° NE
SL-24 R/B 4.3 23:25:49 10° N 23:30:14 75° WNW 23:31:32 47° SSW
Cosmos 2285 Rocket 4.4 23:29:13 34° SSE 23:31:29 48° ESE 23:37:32 10° NNE
Cosmos 1515 Rocket 3.7 23:31:37 50° SW 23:32:31 65° WNW 23:36:50 10° N
GP-B 3.3 23:30:33 10° N 23:34:56 61° E 23:35:54 47° SE
Cosmos 1400 Rocket 4.4 23:34:57 22° ESE 23:35:38 23° E 23:38:50 10° NE
ALOS 2 3.8 23:36:13 28° WSW 23:36:50 29° W 23:40:41 10° NW
Cosmos 1553 Rocket 4.3 23:31:31 10° NNW 23:37:22 51° W 23:39:39 34° SW
SL-8 R/B 3.5 23:32:51 10° W 23:37:38 85° S 23:42:25 10° E
Cosmos 1869 Rocket 3.5 23:37:41 10° N 23:42:03 83° E 23:42:58 55° SSE
USA 234 3.2 23:38:50 22° SE 23:43:13 68° SW 23:49:47 10° WNW
Meteor 1-13 Rocket 4.4 23:41:22 39° S 23:43:39 74° E 23:49:34 10° NNE
Cosmos 1733 Rocket 4.3 23:41:10 10° N 23:45:09 35° ENE 23:46:57 24° ESE
Lacrosse 4 Rocket 1.9 23:42:49 10° NW 23:46:28 41° WSW 23:46:28 41° WSW
